Regional Weather Roundup
Issued by NWS

Home | Current Version | Previous Version | Text Only | Print | Product List | Glossary On
Versions: 1 2 3 4 5 6 7 8 9 10 11 12 13 14 15 16 17 18 19 20 21 22 23 24 25 26 27 28 29 30 31 32 33 34 35 36 37 38 39 40 41 42 43 44 45 46 47 48 49 50
000
ASUS46 KHNX 231410
RWRCA

NORTHERN AND CENTRAL CA REGIONAL WEATHER ROUNDUP
NATIONAL WEATHER SERVICE SACRAMENTO CA
ISSUED BY NATIONAL WEATHER SERVICE SAN JOAQUIN VALLEY CA
700 AM PDT THU OCT 23 2014

NOTE: FAIR INDICATES FEW OR NO CLOUDS BELOW 12,000 FEET WITH NO
SIGNIFICANT WEATHER AND/OR OBSTRUCTIONS TO VISIBILITY.

CAZ001-003-231500
NORTHWEST AREA

CITY           SKY/WX    TMP DP  RH WIND       PRES   REMARKS
CRESCENT CITY  HVY RAIN  60  60 100 S17       29.90R FOG
ARCATA         LGT RAIN  60  57  89 SE13      29.88F
SHELTER COVE   NOT AVBL
UKIAH          CLOUDY    59  53  80 CALM      30.04R
$$

CAZ005>008-065-075-231500
BAY AREA

CITY           SKY/WX    TMP DP  RH WIND       PRES   REMARKS
SANTA ROSA     CLOUDY    55  53  93 CALM      30.04R
SAN RAFAEL     NOT AVBL
NAPA           NOT AVBL
CONCORD        CLOUDY    58  54  86 S3        30.04R
OAKLAND        MOCLDY    58  55  90 CALM      30.05R
SAN FRAN ARPT  MOCLDY    63  60  90 S3        30.04R
LIVERMORE      MOCLDY    56  53  90 CALM      30.04R
HAYWARD        MOCLDY    59  58  96 E3        30.04R
MOFFETT ARPT   CLOUDY    60  55  83 CALM      30.05R
SAN JOSE ARPT  MOCLDY    56  51  84 CALM      30.05R
$$

CAZ009-010-034-037-074-231500
CENTRAL COAST

CITY           SKY/WX    TMP DP  RH WIND       PRES   REMARKS
WATSONVILLE    CLOUDY    55  48  77 NW3       30.05R
SALINAS        CLOUDY    51  47  86 CALM      30.04R
MONTEREY       CLOUDY    56  49  77 E3        30.04R
SAN LUIS OBISP CLEAR     51  39  63 CALM      29.97S
SANTA MARIA    CLEAR     52  45  77 S6        29.99R
$$

CAZ015-016-231500
NORTHERN SACRAMENTO VALLEY

CITY           SKY/WX    TMP DP  RH WIND       PRES   REMARKS
REDDING        LGT RAIN  56  55  97 CALM      30.01F
RED BLUFF      CLOUDY    57  54  89 NW9       30.03R
OROVILLE       CLOUDY    60  47  61 CALM      30.03R
$$

CAZ016>018-231500
SOUTHERN SACRAMENTO VALLEY

CITY           SKY/WX    TMP DP  RH WIND       PRES   REMARKS
BEALE AFB      PTCLDY    58  46  65 NW1       30.01R
MARYSVILLE     CLOUDY    60  47  61 S3        30.02R
SAC INTL ARPT  CLOUDY    59  50  72 CALM      30.02R
MATHER AIRPORT PTCLDY    57  41  54 SE7       30.03R
SAC EXEC ARPT  CLOUDY    59  53  80 SE3       30.02R
VACAVILLE      CLOUDY    59  50  72 CALM      30.03R
TRAVIS AFB     CLOUDY    59  57  93 SW7       30.01R
$$

CAZ019>021-231500
SAN JOAQUIN VALLEY

CITY           SKY/WX    TMP DP  RH WIND       PRES   REMARKS
STOCKTON       MOCLDY    53  47  79 SE3       30.03R
MODESTO        CLOUDY    56  49  77 CALM      30.03R
MERCED         MOCLDY    52  43  71 CALM      30.02S
LEMOORE        CLEAR     47  32  56 CALM      30.03R
FRESNO         MOCLDY    54  44  69 NW3       30.04R
HANFORD        CLEAR     48  44  86 CALM      30.03S
PORTERVILLE    CLEAR     50  41  71 SE5       30.03S
BAKERSFIELD    CLEAR     57  42  57 CALM      30.02R
$$

CAZ011-012-071-231500
NORTHERN MOUNTAINS

CITY           SKY/WX    TMP DP  RH WIND       PRES   REMARKS
YREKA          CLOUDY    54  47  77 S16       29.94S
MOUNT SHASTA   LGT RAIN  48  46  93 CALM      30.04R
ALTURAS        NOT AVBL
$$

CAZ011-012-071-231500
SIERRA NEVADA MTNS

CITY           SKY/WX    TMP DP  RH WIND       PRES   REMARKS
BLUE CANYON    CLOUDY    50  29  44 SE6       30.16
TRUCKEE        MOCLDY    30  27  86 CALM      30.16R
TAHOE VLY ARPT MOCLDY    55  25  31 SE13G20   30.15R
MAMMOTH LAKES  NOT AVBL
$$

WEATHER.GOV/HANFORD



USA.gov is the U.S. government's official web portal to all federal, state and local government web resources and services.